TimeCST,TemperatureF,Dew PointF,Humidity,Sea Level PressureIn,VisibilityMPH,Wind Direction,Wind SpeedMPH,Gust SpeedMPH,PrecipitationIn,Events,Conditions,WindDirDegrees,DateUTC
12:00 AM,74,73,94,30.05,7,NNE,10.4,,,Rain,Light Rain Showers,30,2012-12-03 06:00:00
3:00 AM,73,72,95,30.01,12,West,2.3,,,,Partly Cloudy,270,2012-12-03 09:00:00
6:00 AM,75,72,89,30.04,12,ENE,3.5,,,,Partly Cloudy,60,2012-12-03 12:00:00
6:00 AM,75.2,73.4,94,30.04,6.2,ENE,3.5,-,N/A,,Mostly Cloudy,60,2012-12-03 12:00:00
7:00 AM,73.4,73.4,100,30.06,3.7,NNW,3.5,-,N/A,,Mostly Cloudy,330,2012-12-03 13:00:00
8:00 AM,73.4,73.4,100,30.06,3.7,NNW,3.5,-,N/A,,Mostly Cloudy,330,2012-12-03 14:00:00
8:15 AM,73.4,73.4,100,30.07,0.6,North,2.3,-,N/A,Rain,Rain Showers,350,2012-12-03 14:15:00
8:45 AM,73.4,73.4,100,30.08,3.7,WNW,6.9,-,N/A,Rain,Light Rain Showers,300,2012-12-03 14:45:00
9:00 AM,79,71,72,30.09,6,WSW,2.3,,,Rain,Light Rain Showers,240,2012-12-03 15:00:00
9:00 AM,-9999,-9999,N/A,30.08,5.6,WSW,2.3,-,N/A,,Mostly Cloudy,240,2012-12-03 15:00:00
10:00 AM,77.0,73.4,89,30.07,6.2,NNW,6.9,-,N/A,,Mostly Cloudy,340,2012-12-03 16:00:00
11:00 AM,75.2,71.6,89,30.06,6.2,East,5.8,-,N/A,,Mostly Cloudy,100,2012-12-03 17:00:00
12:00 PM,77,74,89,30.05,11,Calm,Calm,,,Rain,Light Rain Showers,,2012-12-03 18:00:00
12:00 PM,77.0,75.2,94,30.04,6.2,Calm,Calm,-,N/A,Rain,Light Rain Showers,0,2012-12-03 18:00:00
1:00 PM,80.6,71.6,74,30.01,6.2,ENE,8.1,-,N/A,,Mostly Cloudy,70,2012-12-03 19:00:00
2:00 PM,80.6,71.6,74,29.99,6.2,ENE,9.2,-,N/A,,Mostly Cloudy,70,2012-12-03 20:00:00
3:00 PM,81,72,67,29.99,12,ENE,10.4,,,,Partly Cloudy,70,2012-12-03 21:00:00
3:00 PM,80.6,71.6,74,29.98,6.2,ENE,10.4,-,N/A,,Mostly Cloudy,70,2012-12-03 21:00:00
4:00 PM,80.6,71.6,74,29.98,6.2,ENE,9.2,-,N/A,,Mostly Cloudy,60,2012-12-03 22:00:00
5:00 PM,80.6,71.6,74,29.99,6.2,ENE,6.9,-,N/A,,Mostly Cloudy,70,2012-12-03 23:00:00
6:00 PM,79,72,73,30.01,12,ENE,5.8,,,,Partly Cloudy,70,2012-12-04 00:00:00
6:00 PM,78.8,71.6,78,30.00,6.2,ENE,5.8,-,N/A,,Mostly Cloudy,70,2012-12-04 00:00:00
9:00 PM,78,73,80,30.04,12,ENE,3.5,,,,Mostly Cloudy,70,2012-12-04 03:00:00